SCOUT X-4 R/B, 907

Orbit data source: Space-Track

SCOUT X-4 R/B, 907 is space debris in LEO originally from a launch on Sat, 10 Oct 1964 UTC launched from the Air Force Western Test Range (AFWTR). Debris objects in space refer to the collection of defunct objects orbiting the Earth. Examples of debris include non-operational satellites, rocket bodies, and fragments generated from explosions, collisions, or faulty payload assembly.

Loading next visibility...
Identifier
907, 1964-064B
Orbit
LEO
Country
Flag of USUS
Related business
Manufacturer
ABL
Mission
Spacecraft
Bus & Motor
ALTAIR, Unknown motor
Mass
33 kg wet, 33 kg dry
Launch date (UTC)
1964-10-10 (61 years ago)
Launch vehicle
Unknown
Launch site
Air Force Western Test Range (AFWTR)
Object type
Payload
Rocket body
Debris
Shape & HBR
Unknown
Radar Cross Section
Medium (>0.1 m² and <1 m²)

Expand to show TLE details & history
Last TLE update: 15 hours ago

TLE from 15 hours ago
0 SCOUT X-4 R/B
1 00907U 64064B   25340.54977428  .00000222  00000-0  19251-3 0  9993
2 00907  79.6925  19.4153 0121492  75.5692 285.8903 13.80888102 76054
Epoch: 2025-12-06T13:11Z
TLE epoch observation values (Epoch: 2025-12-06T13:11:40.497Z)
Latitude
-0.00012°
Longitude
105.92063°
Altitude
940.135 km
Speed
7.394 km/s
True Right ascension
01h 17m 39s
True Declination
0° 00' 00"
Sunlit
Object was in full shadow at epoch
Visualization orbit readout
Latitude
Unknown
Longitude
Unknown
Altitude
Unknown
Speed
Unknown
Apparent Right ascension
Unknown
Apparent Declination
Unknown
Sunlit
N/A
Visualization observer readout
Local Sidereal Time
02:07:24
Azimuth
Unknown
Elevation
Unknown
Doppler factor
Unknown
Orbital elements
Apogee altitude
1,047.159 km
Perigee altitude
868.902 km
Semi-major axis
7,336.168 km
Eccentricity
0.01215
Inclination
79.6925°
RAAN
19.4153°
Arg. of periapsis
75.5692°
True anomaly
284.54584°
Mean anomaly
285.8903°
Eccentric anomaly
285.21861°
Mean motion
3.45413 °/min
Orbital period
104.22 mins
BSTAR
0.00019251
Loading maneuver chart data...
Computing Atmospheric mass density...
Loading historical data...
Loading historical data...
Loading historical data...
Loading historical data...
Loading historical data...
Loading historical data...
Loading historical data...
Other satellites on launch #64 in the year 1964 (1964-10-10 UTC)

Documentation

Showing up to 5 results
|